Weather History for KSGS - July, 2013

Change the Weather History Date:

Thursday, July 18, 2013

  Actual Average (KMSP) Record (KMSP)
Temperature  
Mean Temperature 86 °F 74 °F  
Max Temperature 95 °F 84 °F 101 °F (1940)
Min Temperature 78 °F 64 °F 49 °F (1873)
Degree Days  
Heating Degree Days 0 0  
Month to date heating degree days 0  
Since 1 June heating degree days 44  
Since 1 July heating degree days 0  
Cooling Degree Days 22 9  
Month to date cooling degree days 160  
Year to date cooling degree days 360  
Since 1 June cooling degree days 318  
Growing Degree Days 36 (Base 50)    
Moisture  
Dew Point 69 °F    
Average Humidity 54    
Maximum Humidity 74    
Minimum Humidity 38    
Precipitation  
Precipitation 0.00 in 0.12 in 2.94 in (1895)
Month to date precipitation 2.30  
Year to date precipitation 16.13  
Snow  
Snow 0.00 in 0.00 in 0.00 in ()
Month to date snowfall 0.0  
Since 1 June snowfall 0.0  
Since 1 July snowfall 0.0  
Snow Depth -    
Sea Level Pressure  
Sea Level Pressure 29.95 in    
Wind  
Wind Speed 7 mph (SW)    
Max Wind Speed 21 mph    
Max Gust Speed 28 mph    
Visibility 10 miles    
Events      
T = Trace of Precipitation, MM = Missing Value Source: NWS Daily Summary

Daily Weather History Graph

Daily Weather History Graph

Search for Another Location

Airport or City:

Trip Planner

Search our weather history database for the weather conditions in past years. The results will help you decide how hot, cold, wet, or windy it might be!

Date:

Astronomy

Jul. 18, 2013 Rise Set
Actual Time 5:43 AM CDT 8:52 PM CDT
Civil Twilight 5:07 AM CDT 9:28 PM CDT
Nautical Twilight 4:22 AM CDT 10:13 PM CDT
Astronomical Twilight 3:26 AM CDT 11:09 PM CDT
Moon 4:49 PM CDT (7/18) 1:36 AM CDT (7/18)
Length of Visible Light 16h 20m
Length of Day
15h 09m
Waxing Gibbous, 77% of the Moon is Illuminated
Jul 18
Waxing Gibbous
Jul 22
Full
Jul 29
Last Quarter
Aug 6
New
Aug 14
First Quarter

Hourly Weather History & Observations

Time (CDT) Temp. Heat Index Dew Point Humidity Pressure Visibility Wind Dir Wind Speed Gust Speed Precip Events Conditions
12:13 AM 82.9 °F 87.7 °F 71.6 °F 68% 30.12 in 10.0 mi Calm Calm - N/A   Clear
12:33 AM 82.6 °F 87.3 °F 71.6 °F 69% 30.11 in 10.0 mi Calm Calm - N/A   Clear
12:53 AM 82.2 °F 86.9 °F 71.4 °F 70% 30.11 in 10.0 mi Calm Calm - N/A   Clear
1:13 AM 83.3 °F 87.9 °F 70.9 °F 66% 30.11 in 10.0 mi SSW 6.9 mph - N/A   Clear
1:33 AM 82.9 °F 87.7 °F 71.2 °F 68% 30.10 in 10.0 mi SW 5.8 mph - N/A   Clear
1:53 AM 82.4 °F 86.7 °F 71.1 °F 68% 30.10 in 10.0 mi SSW 5.8 mph - N/A   Clear
2:13 AM 81.7 °F 85.8 °F 71.1 °F 70% 30.10 in 10.0 mi SW 5.8 mph - N/A   Clear
2:33 AM 81.5 °F 85.5 °F 71.1 °F 70% 30.10 in 10.0 mi SW 5.8 mph - N/A   Clear
2:53 AM 81.1 °F 85.0 °F 71.1 °F 71% 30.10 in 10.0 mi SW 5.8 mph - N/A   Clear
3:13 AM 81.0 °F 84.7 °F 70.9 °F 71% 30.10 in 10.0 mi SW 4.6 mph - N/A   Clear
3:33 AM 80.6 °F 84.2 °F 70.9 °F 72% 30.09 in 10.0 mi SW 3.5 mph - N/A   Clear
3:53 AM 80.2 °F 83.7 °F 70.7 °F 73% 30.09 in 10.0 mi SW 4.6 mph - N/A   Clear
4:13 AM 79.9 °F - 70.7 °F 73% 30.08 in 10.0 mi SW 3.5 mph - N/A   Clear
4:33 AM 79.7 °F - 70.3 °F 73% 30.08 in 10.0 mi SW 3.5 mph - N/A   Clear
4:53 AM 79.2 °F - 70.0 °F 73% 30.07 in 10.0 mi SSW 3.5 mph - N/A   Clear
5:13 AM 79.2 °F - 69.8 °F 73% 30.07 in 10.0 mi South 3.5 mph - N/A   Clear
5:33 AM 78.8 °F - 69.8 °F 74% 30.07 in 10.0 mi SSW 3.5 mph - N/A   Clear
5:53 AM 78.8 °F - 70.0 °F 74% 30.06 in 10.0 mi SSW 4.6 mph - N/A   Clear
6:13 AM 78.8 °F - 69.8 °F 74% 30.06 in 10.0 mi SSW 3.5 mph - N/A   Clear
6:33 AM 79.5 °F - 69.8 °F 72% 30.06 in 10.0 mi SW 3.5 mph - N/A   Clear
6:53 AM 80.1 °F 83.2 °F 70.0 °F 71% 30.06 in 10.0 mi SSW 3.5 mph - N/A   Clear
7:13 AM 80.8 °F 84.2 °F 70.0 °F 70% 30.05 in 10.0 mi South 5.8 mph - N/A   Clear
7:33 AM 81.7 °F 85.4 °F 70.2 °F 68% 30.05 in 10.0 mi SW 5.8 mph - N/A   Clear
7:53 AM 82.6 °F 86.6 °F 70.2 °F 66% 30.04 in 10.0 mi SSW 4.6 mph - N/A   Clear
8:13 AM 83.8 °F 88.3 °F 70.3 °F 64% 30.03 in 10.0 mi SSW 5.8 mph - N/A   Clear
8:33 AM 85.3 °F 90.1 °F 70.3 °F 61% 30.03 in 10.0 mi SSW 6.9 mph - N/A   Clear
8:53 AM 86.4 °F 91.1 °F 69.8 °F 58% 30.03 in 10.0 mi SW 6.9 mph - N/A   Clear
9:13 AM 86.9 °F 91.0 °F 68.9 °F 55% 30.02 in 10.0 mi SW 10.4 mph - N/A   Clear
9:33 AM 87.8 °F 91.8 °F 68.9 °F 53% 30.01 in 10.0 mi SW 11.5 mph 18.4 mph N/A   Clear
9:53 AM 88.7 °F 93.0 °F 68.9 °F 52% 30.01 in 10.0 mi WSW 9.2 mph - N/A   Clear
10:13 AM 89.1 °F 92.9 °F 68.4 °F 50% 30.00 in 10.0 mi SW 11.5 mph 18.4 mph N/A   Clear
10:33 AM 90.3 °F 94.7 °F 68.5 °F 49% 29.99 in 10.0 mi WSW 9.2 mph - N/A   Clear
10:53 AM 90.5 °F 94.6 °F 68.5 °F 48% 29.99 in 10.0 mi SW 9.2 mph 17.3 mph N/A   Clear
11:13 AM 90.7 °F 95.0 °F 68.7 °F 48% 29.98 in 10.0 mi WSW 9.2 mph 23.0 mph N/A   Clear
11:33 AM 91.2 °F 95.5 °F 68.2 °F 47% 29.98 in 10.0 mi SW 13.8 mph 19.6 mph N/A   Clear
11:53 AM 91.8 °F 95.5 °F 67.8 °F 45% 29.97 in 10.0 mi SW 17.3 mph 21.9 mph N/A   Clear
12:13 PM 92.7 °F 96.2 °F 67.3 °F 43% 29.97 in 10.0 mi WSW 11.5 mph 23.0 mph N/A   Clear
12:33 PM 93.2 °F 96.7 °F 67.3 °F 42% 29.96 in 10.0 mi SW 16.1 mph 23.0 mph N/A   Clear
12:53 PM 93.7 °F 97.2 °F 66.7 °F 41% 29.95 in 10.0 mi SW 15.0 mph 25.3 mph N/A   Clear
1:13 PM 94.1 °F 97.9 °F 66.9 °F 41% 29.95 in 10.0 mi SSW 16.1 mph 23.0 mph N/A   Clear
1:33 PM 94.3 °F 98.2 °F 67.1 °F 41% 29.94 in 10.0 mi WSW 15.0 mph 19.6 mph N/A   Clear
1:53 PM 94.5 °F 98.0 °F 66.6 °F 40% 29.93 in 10.0 mi SW 13.8 mph 25.3 mph N/A   Clear
2:13 PM 94.6 °F 98.9 °F 67.6 °F 41% 29.92 in 10.0 mi SW 12.7 mph 18.4 mph N/A   Clear
2:33 PM 94.8 °F 98.7 °F 67.3 °F 40% 29.92 in 10.0 mi SW 13.8 mph 19.6 mph N/A   Clear
2:53 PM 95.0 °F 98.5 °F 66.4 °F 39% 29.91 in 10.0 mi WSW 13.8 mph 26.5 mph N/A   Clear
3:13 PM 95.0 °F 98.5 °F 66.6 °F 39% 29.90 in 10.0 mi SW 15.0 mph 23.0 mph N/A   Clear
3:33 PM 95.0 °F 97.9 °F 65.7 °F 38% 29.89 in 10.0 mi SW 13.8 mph 25.3 mph N/A   Clear
3:53 PM 95.5 °F 98.9 °F 66.0 °F 38% 29.88 in 10.0 mi SW 19.6 mph 24.2 mph N/A   Clear
4:13 PM 95.2 °F 99.9 °F 67.8 °F 41% 29.87 in 10.0 mi SW 13.8 mph 17.3 mph N/A   Clear
4:33 PM 95.0 °F 98.5 °F 66.2 °F 39% 29.86 in 10.0 mi SSW 20.7 mph 27.6 mph N/A   Clear
4:53 PM 95.0 °F 98.5 °F 66.6 °F 39% 29.86 in 10.0 mi SW 11.5 mph 24.2 mph N/A   Clear
5:13 PM 95.0 °F 97.9 °F 66.0 °F 38% 29.85 in 10.0 mi SW 18.4 mph - N/A   Scattered Clouds
5:33 PM 94.8 °F 97.6 °F 65.7 °F 38% 29.84 in 10.0 mi SW 16.1 mph 25.3 mph N/A   Scattered Clouds
5:53 PM 94.5 °F 97.5 °F 66.2 °F 39% 29.84 in 10.0 mi SW 17.3 mph 24.2 mph N/A   Clear
6:13 PM 94.1 °F 97.9 °F 67.1 °F 41% 29.83 in 10.0 mi SW 12.7 mph 19.6 mph N/A   Clear
6:33 PM 93.6 °F 96.9 °F 66.7 °F 41% 29.82 in 10.0 mi SW 17.3 mph 24.2 mph N/A   Clear
6:53 PM 93.4 °F 97.0 °F 67.3 °F 42% 29.81 in 10.0 mi SW 11.5 mph 18.4 mph N/A   Clear
7:13 PM 92.8 °F 96.6 °F 67.1 °F 43% 29.81 in 10.0 mi SW 17.3 mph 23.0 mph N/A   Clear
7:33 PM 92.3 °F 96.1 °F 67.5 °F 44% 29.80 in 10.0 mi SW 13.8 mph 17.3 mph N/A   Clear
7:53 PM 91.6 °F 95.2 °F 67.6 °F 45% 29.80 in 10.0 mi SW 12.7 mph 19.6 mph N/A   Clear
8:13 PM 91.0 °F 95.2 °F 68.0 °F 47% 29.80 in 10.0 mi SW 12.7 mph 20.7 mph N/A   Clear
8:33 PM 90.5 °F 94.6 °F 68.2 °F 48% 29.79 in 10.0 mi SW 11.5 mph 17.3 mph N/A   Clear
8:53 PM 89.6 °F 93.4 °F 68.2 °F 49% 29.79 in 10.0 mi SW 10.4 mph 17.3 mph N/A   Clear
9:13 PM 89.2 °F 93.2 °F 68.2 °F 50% 29.79 in 10.0 mi SW 13.8 mph 20.7 mph N/A   Clear
9:33 PM 88.9 °F 92.6 °F 68.0 °F 50% 29.79 in 10.0 mi SW 10.4 mph 17.3 mph N/A   Clear
9:53 PM 88.7 °F 91.9 °F 67.5 °F 49% 29.79 in 10.0 mi SW 9.2 mph - N/A   Clear
10:13 PM 87.8 °F 91.4 °F 68.0 °F 52% 29.79 in 10.0 mi SW 10.4 mph - N/A   Clear
10:33 PM 87.6 °F 91.1 °F 68.0 °F 52% 29.79 in 10.0 mi SSW 10.4 mph - N/A   Clear
10:53 PM 87.1 °F 90.6 °F 68.0 °F 53% 29.78 in 10.0 mi SSW 9.2 mph 16.1 mph N/A   Clear
11:13 PM 87.3 °F 90.5 °F 67.5 °F 52% 29.78 in 10.0 mi SW 11.5 mph 17.3 mph N/A   Clear
11:33 PM 87.3 °F 90.2 °F 67.3 °F 51% 29.78 in 10.0 mi SW 11.5 mph 18.4 mph N/A   Clear
11:53 PM 87.4 °F 90.5 °F 67.3 °F 51% 29.78 in 10.0 mi SW 11.5 mph 19.6 mph N/A   Clear